ONEWEB-0053, 45157

Orbit data source: Space-Track

ONEWEB-0053, 45157 is a payload satellite owned by One Web (UK) in LEO that was launched on Thu, 06 Feb 2020 UTC via a SOYUZ-2-1B launch vehicle from the Tyuratam Missile And Space Complex (TTMTR). Payload-class satellites include a variety of spacecraft equipped with specific instruments for various scientific and technological missions. These include communications satellites like Starlink; space stations such as the ISS; scientific satellites like the Hubble; Earth observation satellites from companies like Planet Labs, Umbra, and HawkEye 360; GPS; miniature CubeSats for education and research; and military/defense satellites.

Loading next visibility...
Identifier
45157, 2020-008AC
Orbit
LEO
Country
Flag of UKUK
Related business
Manufacturer
One Web
Mission
Operational Commercial Communications
Bus & Motor
ARROW, Unknown motor
Mass
148 kg wet, ~140 kg dry
Launch date (UTC)
Icon of a cake. It is the launch day of the satellite!2020-02-06 (6 years ago)
Launch vehicle
SOYUZ-2-1B
Launch site
Tyuratam Missile And Space Complex (TTMTR)
Object type
Payload
Rocket body
Debris
Shape & HBR
Trap Box + 2 Pan, 6.7 m
Radar Cross Section
3.464 m², Large (>1 m²)

Expand to show TLE details & history
Last TLE update: 12 hours ago

TLE from 12 hours ago
0 ONEWEB-0053
1 45157U 20008AC  26036.56023098 -.00000796  00000-0 -23180-2 0  9992
2 45157  87.8751  62.5171 0001988  79.5631 280.5720 13.10375164290678
Epoch: 2026-02-05T13:26Z
TLE epoch observation values (Epoch: 2026-02-05T13:26:43.956Z)
Latitude
-0.00006°
Longitude
85.12324°
Altitude
1,224.319 km
Speed
7.242 km/s
True Right ascension
04h 10m 04s
True Declination
0° 00' 00"
Sunlit
Object was in daylight at epoch
Visualization orbit readout
Latitude
Unknown
Longitude
Unknown
Altitude
Unknown
Speed
Unknown
Apparent Right ascension
Unknown
Apparent Declination
Unknown
Sunlit
N/A
Visualization observer readout
Local Sidereal Time
03:30:33
Azimuth
Unknown
Elevation
Unknown
Doppler factor
Unknown
Orbital elements
Apogee altitude
1,220.338 km
Perigee altitude
1,217.318 km
Semi-major axis
7,596.965 km
Eccentricity
0.0002
Inclination
87.8751°
RAAN
62.5171°
Arg. of periapsis
79.5631°
True anomaly
280.5496°
Mean anomaly
280.572°
Eccentric anomaly
280.5608°
Mean motion
3.2778 °/min
Orbital period
109.83 mins
BSTAR
-0.002318
Loading maneuver chart data...
Computing Atmospheric mass density...
Loading historical data...
Loading historical data...
Loading historical data...
Loading historical data...
Loading historical data...
Loading historical data...
Loading historical data...

Documentation

Showing up to 5 results
|